STARLINK-2540, 48290

Orbit data source: Space-Track

STARLINK-2540, 48290 is a payload satellite owned by SpaceX/Seattle (US) in LEO that was launched on Thu, 29 Apr 2021 UTC via an FALCON 9 launch vehicle from the Air Force Eastern Test Range (AFETR). Payload-class satellites include a variety of spacecraft equipped with specific instruments for various scientific and technological missions. These include communications satellites like Starlink; space stations such as the ISS; scientific satellites like the Hubble; Earth observation satellites from companies like Planet Labs, Umbra, and HawkEye 360; GPS; miniature CubeSats for education and research; and military/defense satellites.

Loading next visibility...
Identifier
48290, 2021-036Q
Orbit
LEO
Country
Flag of USUS
Related business
Manufacturer
SpaceX/Seattle
Mission
Partially operational Commercial Communications
Bus & Motor
STARLINK, Unknown motor
Mass
260 kg wet, ~248 kg dry
Launch date (UTC)
2021-04-29 (5 years ago)
Launch vehicle
FALCON 9
Launch site
Air Force Eastern Test Range (AFETR)
Object type
Payload
Rocket body
Debris
Shape & HBR
Box + 1 Pan, 10.1 m
Radar Cross Section
13.562 m², Large (>1 m²)

Expand to show TLE details & history
Last TLE update: 15 hours ago

TLE from 15 hours ago
0 STARLINK-2540
1 48290U 21036Q   25341.00002315  .00161188  00000-0  10233-2 0  9997
2 48290  53.0524 125.6995 0002856 340.9589 255.7877 15.75510925  5714
Epoch: 2025-12-07T00:00Z
TLE epoch observation values (Epoch: 2025-12-07T00:00:02.000Z)
Latitude
-42.12191°
Longitude
-87.77344°
Altitude
357.671 km
Speed
7.694 km/s
True Right ascension
23h 13m 01s
True Declination
-41° 56' 26"
Sunlit
Object was in daylight at epoch
Visualization orbit readout
Latitude
Unknown
Longitude
Unknown
Altitude
Unknown
Speed
Unknown
Apparent Right ascension
Unknown
Apparent Declination
Unknown
Sunlit
N/A
Visualization observer readout
Local Sidereal Time
13:33:08
Azimuth
Unknown
Elevation
Unknown
Doppler factor
Unknown
Orbital elements
Apogee altitude
345.376 km
Perigee altitude
341.537 km
Semi-major axis
6,721.594 km
Eccentricity
0.00029
Inclination
53.0524°
RAAN
125.6995°
Arg. of periapsis
340.9589°
True anomaly
255.75598°
Mean anomaly
255.7877°
Eccentric anomaly
255.77184°
Mean motion
3.93854 °/min
Orbital period
91.4 mins
BSTAR
0.0010233
Loading maneuver chart data...
Computing Atmospheric mass density...
Loading historical data...
Loading historical data...
Loading historical data...
Loading historical data...
Loading historical data...
Loading historical data...
Loading historical data...

Documentation

Showing up to 5 results
|